RH
15 15 14 14 13 13 11 9 7 6 7 9 12 14 13 12 10 9 8 8 8 8 8 7 7 7 6 6 6 6 6 6 6 6 6 6 5 5 6 6 6 6 6 6 6 7 8 7 8 8 9 12 11 11 17 18 18 20 18 16 15 15 12 10 8 8 8 7 9 11 13 15 13 11 14 18 18 15 13 20 33 40 40 45 52 53 48 38
11 11 11 10 9 8 7 5 4 4 5 7 12 14 13 12 10 9 8 8 8 8 8 6 7 7 6 6 6 5 6 6 6 6 6 6 6 6 6 5 6 6 6 6 7 6 8 10 10 11 14 17 17 15 15 17 19 19 18 16 14 13 11 9 8 7 9 9 11 14 15 15 14 12 13 20 22 19 15 18 31 38 37 46 52 51 49 39
7 7 7 6 5 5 4 3 3 4 5 8 12 14 14 12 10 9 9 9 9 8 7 6 7 6 6 6 5 6 5 4 5 5 7 6 6 6 5 6 5 6 6 6 7 7 11 20 20 18 19 18 18 17 14 15 19 19 17 16 13 12 9 9 8 8 11 12 12 13 14 15 13 12 14 20 24 22 17 15 26 38 36 41 51 51 50 51
4 4 4 4 3 3 3 3 4 5 7 11 14 15 14 12 10 10 9 9 8 8 7 6 6 6 7 5 6 7 8 18 17 7 5 6 6 7 6 6 6 5 6 6 7 11 18 27 27 22 21 17 16 16 14 15 18 18 16 14 13 11 9 9 9 10 13 13 12 12 14 14 11 13 18 20 23 21 19 14 17 34 41 40 47 50 50 54
3 3 3 4 3 4 4 5 6 7 10 15 17 16 15 12 11 10 9 9 8 8 7 6 6 6 6 6 7 9 25 49 38 16 12 9 5 7 7 5 6 5 6 6 5 14 25 28 26 22 20 17 15 14 14 15 16 16 15 13 12 10 9 9 10 11 13 13 13 14 13 13 11 14 17 18 21 21 20 18 14 30 48 46 42 45 47 46
4 4 5 5 5 6 7 8 10 12 16 19 19 17 15 12 11 10 10 9 8 8 7 6 6 6 6 6 7 14 42 61 41 26 24 15 8 6 7 6 7 6 6 7 5 16 30 28 23 20 18 16 15 14 13 14 14 14 14 13 12 11 11 11 12 12 13 14 14 14 12 12 13 14 15 17 22 23 23 22 16 26 43 44 41 42 45 43
5 5 7 8 9 10 11 13 16 19 21 20 19 18 16 13 11 11 10 9 9 9 7 7 6 6 7 6 9 16 40 50 31 24 20 14 15 8 6 7 6 6 6 6 7 21 27 22 20 17 16 15 13 14 13 14 13 13 13 13 12 11 11 11 12 13 14 15 14 14 13 14 14 13 14 18 24 25 27 28 22 28 37 41 43 42 41 41
5 6 8 10 13 15 17 20 22 23 22 21 20 19 17 13 12 10 10 9 8 9 8 7 6 7 7 7 13 17 34 41 22 15 12 11 15 9 7 8 6 7 7 5 10 25 24 17 20 16 14 13 12 12 11 13 12 11 13 12 12 11 12 12 12 13 13 14 14 14 14 14 13 13 18 22 25 31 37 38 33 36 46 48 45 42 40 40
4 5 8 12 17 20 23 24 25 24 22 22 21 20 18 14 12 11 11 10 9 10 9 7 7 8 9 15 30 42 50 45 23 12 10 8 10 9 8 7 7 7 7 9 16 27 23 17 19 14 14 12 11 11 10 12 11 11 13 13 12 10 12 13 12 12 12 13 13 15 14 13 13 15 21 24 28 38 44 46 45 45 50 51 47 47 47 49
3 4 6 10 16 22 25 26 26 24 23 23 22 21 18 14 13 11 11 11 9 10 8 8 7 10 19 30 52 65 57 42 24 11 8 6 7 8 7 8 8 6 11 20 25 27 21 17 16 14 14 12 13 13 11 12 12 12 13 12 11 9 10 12 12 12 11 12 13 14 13 13 15 15 18 27 36 39 40 48 52 47 44 44 44 49 50 51
5 4 3 6 10 18 24 27 26 25 25 24 22 22 19 16 14 12 12 12 10 10 9 8 9 15 27 40 57 61 47 36 21 7 6 6 6 7 7 8 7 9 22 31 28 25 20 18 18 17 16 14 15 15 13 12 11 12 13 13 12 11 11 11 12 12 12 13 13 14 13 13 16 16 17 30 40 37 37 46 50 50 52 50 46 52 54 52
5 4 4 3 4 9 16 23 26 27 26 25 24 22 20 17 14 13 13 12 10 10 9 8 13 17 24 35 43 41 34 28 14 5 8 6 5 8 7 9 12 20 32 30 24 23 21 23 25 21 17 17 16 13 12 12 12 13 14 15 15 13 13 12 12 13 13 13 14 14 12 13 15 15 17 28 36 35 38 43 46 51 53 52 50 54 59 60
5 5 5 4 4 4 6 12 19 24 26 26 25 23 22 19 16 14 13 13 12 10 9 10 15 18 29 42 35 23 20 15 8 7 7 5 7 7 7 16 23 32 37 28 22 23 24 27 27 22 21 23 19 15 14 14 13 14 15 15 14 13 12 12 12 13 13 12 14 14 13 13 14 14 20 30 33 32 39 46 51 55 51 49 47 51 58 61
5 5 5 4 4 4 4 5 8 14 20 24 26 24 23 20 18 16 13 14 12 10 10 13 20 25 38 46 29 14 12 9 7 8 7 6 9 9 8 14 22 34 39 32 26 24 25 26 24 24 25 24 21 19 18 16 16 14 13 13 11 12 11 11 11 12 12 11 14 14 13 12 12 15 22 28 30 29 35 43 50 57 62 60 51 57 66 63
5 5 5 5 4 4 5 4 4 6 9 14 21 24 25 23 21 18 15 14 12 11 11 16 25 30 41 48 34 17 10 8 8 7 8 7 12 15 11 10 16 27 33 30 28 26 24 23 23 23 23 21 20 20 18 15 16 14 12 12 11 11 9 10 11 12 11 11 15 14 12 12 11 14 19 22 24 27 29 36 47 56 66 67 58 66 70 57
5 5 5 5 5 5 4 5 5 4 5 8 12 17 22 24 22 19 16 14 13 11 10 19 26 31 47 58 45 21 8 14 14 7 9 15 23 23 17 19 21 25 27 26 27 28 25 23 24 23 23 23 18 16 16 15 15 14 12 11 11 10 8 10 12 12 12 12 15 15 12 11 10 13 17 19 20 22 24 30 42 48 50 52 54 64 62 50
5 5 5 5 5 5 5 5 5 5 6 5 7 11 16 21 24 23 19 15 14 11 12 24 28 30 41 42 34 22 16 26 24 12 14 23 30 25 21 26 27 26 27 27 27 25 26 25 24 23 23 24 19 15 16 15 15 14 12 11 12 10 8 11 12 12 13 12 13 14 13 11 12 15 17 19 18 18 21 23 31 38 42 47 51 55 54 50
7 6 5 5 5 6 6 5 6 6 5 5 7 8 10 14 17 20 21 18 15 11 13 22 24 31 37 31 29 29 30 37 30 20 21 25 30 27 25 27 27 27 26 28 26 24 26 25 24 23 20 20 19 17 16 15 17 18 14 11 11 11 9 10 11 13 14 13 12 13 14 12 13 17 16 15 16 17 18 19 24 31 40 46 46 46 48 49
8 8 8 6 6 6 7 7 7 7 7 8 6 8 21 26 21 27 28 20 15 14 23 30 27 35 40 36 37 37 39 39 30 26 26 24 27 28 28 28 28 27 26 27 25 24 26 24 25 24 20 20 17 16 21 22 22 21 17 11 10 12 10 9 10 13 14 14 14 13 13 12 12 15 15 13 15 18 19 18 21 28 37 45 47 46 47 45
8 9 9 8 7 6 7 8 8 9 10 9 6 21 54 57 50 64 56 28 15 20 43 49 36 35 38 37 40 40 38 33 28 30 28 24 25 27 29 30 28 27 26 26 25 24 25 24 25 23 22 25 21 20 27 28 25 23 20 14 12 13 12 11 11 13 15 15 15 13 12 12 11 12 14 14 15 17 18 17 19 24 32 41 47 52 51 45
8 8 9 9 9 7 7 8 9 11 11 12 14 32 69 71 58 75 69 37 21 21 40 51 38 33 36 36 39 40 35 29 27 30 30 27 26 27 28 27 27 26 25 25 26 27 26 24 23 23 25 25 24 26 26 26 25 25 23 17 15 15 12 11 13 15 17 17 16 15 14 12 11 13 14 14 16 16 17 19 21 22 25 29 33 41 46 49
7 8 9 9 9 8 8 8 10 15 16 21 26 34 64 70 50 54 52 38 38 31 31 43 42 36 35 38 39 38 35 31 29 30 32 28 24 25 25 24 25 25 24 23 25 28 26 22 19 23 27 26 26 29 25 23 23 24 22 17 16 15 12 13 16 17 18 18 17 16 15 13 13 14 14 14 16 17 17 20 22 21 23 26 27 31 39 48
7 8 9 9 10 9 8 8 9 15 21 32 38 36 52 57 41 38 33 29 46 50 38 38 41 37 35 41 40 35 33 31 29 31 31 26 23 26 25 22 21 20 22 22 23 25 22 21 20 19 24 26 25 26 25 23 22 22 20 17 16 14 12 14 17 17 18 19 18 17 17 18 17 13 14 17 18 17 19 22 23 20 22 27 27 28 32 40
8 8 8 9 10 9 10 10 7 12 20 30 38 36 42 46 43 42 30 24 43 54 45 35 34 33 31 37 36 30 32 33 29 30 31 26 24 26 25 23 20 18 18 18 22 22 18 20 22 20 22 24 23 24 25 24 20 19 19 18 17 14 12 13 17 21 22 22 23 22 21 21 19 15 16 19 16 17 21 23 22 21 24 27 27 27 29 31
9 8 9 9 9 10 10 9 9 10 12 21 35 43 43 42 47 46 30 29 45 51 46 36 29 28 28 34 33 27 31 34 28 26 30 29 25 24 23 22 21 19 16 15 18 19 18 21 22 24 25 23 23 22 25 27 23 19 19 19 18 17 15 15 19 24 25 26 26 27 24 20 17 16 18 19 15 19 24 21 20 23 25 26 28 30 29 29
9 8 9 9 9 11 9 10 13 9 12 30 47 53 45 38 48 46 33 44 57 48 40 33 26 25 29 36 34 28 30 32 27 25 28 29 26 25 23 21 20 19 17 17 15 15 18 22 23 24 24 24 23 21 22 27 26 21 20 19 19 19 18 17 19 23 24 25 25 27 25 20 17 16 16 16 15 20 24 22 22 25 25 24 27 30 30 33
9 9 9 9 9 10 8 11 11 9 32 61 64 51 38 37 48 43 39 57 60 42 33 30 26 26 30 36 33 29 30 29 25 24 28 28 26 26 26 24 20 16 18 19 17 17 19 20 23 25 25 25 24 21 21 24 25 25 24 22 20 20 21 19 19 22 24 23 22 25 25 22 20 17 17 16 14 19 24 25 25 24 24 25 26 28 30 33
10 9 10 10 9 10 9 11 10 11 33 54 50 38 33 38 44 43 54 67 51 35 32 28 27 27 28 33 32 27 28 29 27 25 28 29 26 26 25 23 21 17 18 19 18 20 20 19 23 27 26 25 22 21 21 21 22 24 25 24 22 22 22 19 18 20 22 22 21 21 22 22 21 19 19 16 13 18 23 26 26 23 22 23 23 25 27 27
10 9 10 10 9 10 9 9 11 12 18 20 17 19 25 34 40 47 67 68 41 29 31 28 30 30 28 32 33 29 27 27 27 26 29 30 26 26 25 21 21 20 18 18 18 20 21 20 21 25 26 24 22 21 20 18 18 22 26 26 24 25 23 20 20 19 20 24 24 22 22 22 21 20 19 17 14 18 23 25 26 25 24 25 25 25 26 29
10 10 10 10 10 10 9 10 10 10 12 10 9 11 16 29 46 60 67 58 38 29 30 30 31 31 31 32 31 32 31 27 26 26 29 30 27 26 26 23 22 21 19 19 19 18 20 23 24 23 23 23 22 20 19 18 19 23 27 28 27 26 23 22 22 22 25 29 27 25 23 23 23 21 19 18 16 18 24 25 24 25 27 31 34 32 31 35
10 11 10 10 11 9 10 11 9 10 10 10 11 9 10 29 59 72 59 43 36 29 27 29 29 29 30 29 26 29 31 27 25 26 27 27 27 25 25 24 22 21 21 21 20 18 17 20 24 23 20 20 20 19 18 19 21 22 24 25 26 24 22 24 24 27 30 30 27 24 22 22 23 22 21 20 18 22 25 23 22 24 29 36 38 37 38 39
10 11 10 10 10 10 12 11 10 11 8 10 11 8 22 48 65 66 52 42 40 30 25 25 24 25 27 26 24 25 26 24 23 25 25 23 24 25 24 22 22 21 20 20 21 20 19 20 20 20 19 18 17 16 16 16 18 21 20 21 24 23 26 29 29 30 31 30 28 25 22 22 22 22 22 21 20 23 25 24 26 28 32 38 38 39 41 41
9 10 10 10 10 10 11 10 11 11 8 12 8 10 43 65 56 48 43 40 38 29 24 24 21 21 24 23 22 22 23 23 21 22 22 21 22 23 22 21 21 22 22 22 22 22 23 23 20 18 19 19 17 16 15 13 16 20 18 19 23 25 31 35 33 31 31 29 28 26 24 24 23 22 22 22 22 24 26 27 30 32 36 39 38 38 41 44
7 8 10 9 10 10 11 11 11 10 10 10 9 24 56 65 50 43 37 33 36 30 25 25 21 20 22 20 19 20 22 22 21 20 20 20 21 21 23 22 19 20 23 25 24 23 23 24 22 19 18 19 18 16 15 14 15 18 19 21 22 24 31 35 31 29 29 26 24 24 24 24 25 24 22 23 26 28 28 29 33 37 40 40 37 35 44 53
5 7 8 7 10 9 10 12 9 12 12 6 20 46 58 56 47 39 31 26 29 29 27 25 22 21 21 18 18 19 20 21 21 21 19 19 20 20 20 21 20 20 20 21 20 20 21 19 19 18 18 19 19 17 16 15 14 15 18 21 22 23 26 28 27 26 26 25 24 25 24 24 28 28 24 26 30 29 27 29 34 37 39 39 38 39 51 57
5 5 6 7 9 8 10 13 9 12 10 10 37 57 49 45 43 31 25 21 20 25 29 26 23 22 20 18 18 17 18 20 21 21 20 17 16 16 17 19 22 21 18 17 18 18 18 16 15 17 18 20 20 17 15 15 16 16 18 20 22 23 24 25 26 24 24 28 28 24 23 23 25 26 26 28 31 27 25 29 31 33 35 39 44 50 54 46
4 5 6 5 9 14 15 17 19 17 10 18 51 61 45 41 38 27 23 22 22 27 28 26 25 24 21 20 20 19 18 21 21 20 19 17 15 14 15 19 25 22 18 19 20 22 23 20 18 17 18 19 19 18 17 17 17 17 17 18 20 21 23 24 25 24 24 29 28 21 21 21 20 22 25 28 30 26 24 26 27 32 39 44 50 51 40 26
5 7 4 3 28 48 37 25 29 31 26 36 55 57 47 43 36 28 23 21 25 27 24 24 26 25 23 21 23 22 22 22 20 19 17 14 15 16 15 21 27 26 24 24 23 24 25 24 22 20 18 17 16 18 20 19 18 17 16 16 16 18 21 21 24 26 26 29 27 21 20 19 18 19 21 26 28 25 25 25 26 35 42 49 55 45 25 18
6 7 5 11 40 57 38 24 32 40 46 54 54 47 43 38 31 26 22 21 25 24 21 21 22 25 27 25 25 25 25 24 20 19 16 12 20 27 22 22 28 29 28 27 24 23 23 25 27 23 18 15 14 17 20 19 17 16 15 16 15 16 18 19 21 24 25 28 28 25 22 19 20 21 21 25 26 26 27 24 25 32 37 47 58 44 22 18
4 5 22 44 56 46 29 27 36 49 59 59 51 43 38 31 26 22 19 23 27 22 18 19 18 21 25 25 27 26 26 27 22 21 17 12 24 33 27 25 30 31 31 29 25 23 25 29 31 26 20 16 15 17 19 19 18 17 15 16 17 18 19 19 19 19 22 25 26 27 25 22 23 24 23 25 26 26 29 27 26 30 32 44 56 43 24 19
4 6 30 55 56 41 35 38 41 52 60 54 46 42 35 30 28 26 25 28 29 23 19 21 21 23 24 25 27 27 26 26 24 24 22 17 22 26 26 28 29 28 30 30 26 24 25 29 30 25 21 19 17 18 18 18 19 20 19 19 21 25 27 28 27 25 24 24 25 28 28 25 26 25 23 26 28 28 31 30 29 31 35 48 56 42 25 21
3 12 34 47 45 36 38 46 49 53 54 47 44 39 32 30 30 30 30 30 29 24 20 20 23 26 28 28 29 28 26 26 25 25 24 20 20 23 27 31 29 28 29 26 25 26 28 31 32 29 26 23 20 19 18 16 17 20 22 22 22 23 25 27 27 27 28 27 26 31 33 33 34 31 27 27 28 29 31 31 30 32 41 53 55 41 27 24
13 36 53 51 49 46 47 52 50 48 49 44 39 34 29 31 33 34 32 26 26 24 20 20 23 24 26 27 30 29 27 27 26 25 24 21 23 28 30 31 29 27 26 22 23 27 26 28 31 30 27 23 18 16 15 14 14 17 19 19 20 20 20 21 21 21 22 22 23 26 30 35 37 36 33 31 29 28 30 32 32 35 45 55 55 43 31 27
22 52 67 60 56 54 55 57 48 42 44 40 35 33 31 31 34 36 33 26 25 24 22 25 27 28 28 27 28 29 29 28 26 26 25 22 26 32 32 32 29 24 23 26 31 32 30 30 31 28 26 24 21 16 14 13 14 15 16 18 21 22 21 22 21 21 22 23 25 26 28 34 39 37 35 34 31 30 33 35 35 38 48 58 60 53 41 33
19 40 57 58 57 53 50 50 44 38 38 37 34 34 34 33 34 36 35 31 29 28 31 36 36 35 35 32 31 32 32 29 26 26 25 22 26 32 33 33 30 24 23 27 32 36 37 38 36 33 33 32 27 20 18 20 21 21 20 21 25 26 26 27 24 24 27 28 30 29 28 34 40 38 37 36 34 32 34 35 35 38 46 55 62 64 58 47
36 48 54 48 47 48 44 39 37 36 40 44 44 41 41 41 38 36 38 38 35 32 36 39 37 37 39 36 34 34 34 31 27 27 26 23 24 30 33 34 31 27 24 24 30 36 39 40 37 35 35 32 28 25 24 26 26 25 24 24 26 27 28 30 29 28 30 32 33 33 31 33 36 35 37 39 39 37 35 36 36 35 40 50 60 69 71 59
52 62 68 60 52 51 48 39 33 34 38 41 43 43 45 46 42 40 42 40 33 31 37 37 33 35 38 37 37 37 37 34 29 27 27 23 23 28 35 36 34 32 28 25 26 30 33 35 34 34 35 32 30 28 27 27 26 25 24 24 25 25 24 26 29 30 31 32 33 33 34 36 37 37 38 40 42 41 40 41 41 39 41 48 56 67 74 68
71 76 78 71 62 60 62 55 43 40 43 43 42 42 44 47 47 43 42 44 39 36 38 39 36 36 35 34 35 37 38 38 35 32 29 26 24 26 30 34 38 40 38 34 30 31 35 36 34 35 35 32 31 29 28 28 27 25 26 24 23 23 22 23 25 28 29 30 32 33 35 36 38 39 40 41 42 41 40 41 41 43 44 47 55 67 70 66
58 70 70 64 64 69 71 67 60 56 55 52 52 51 49 52 54 48 45 50 52 47 42 39 38 37 35 31 30 33 39 43 43 40 39 38 36 35 34 35 38 41 41 39 38 41 44 42 40 40 38 35 34 31 30 30 28 27 26 23 22 23 24 23 23 25 26 27 30 33 33 34 37 38 39 42 45 45 43 41 40 42 45 46 53 66 67 61
27 38 42 44 56 66 63 59 61 59 49 45 49 52 53 54 54 53 51 49 51 54 54 51 47 43 40 32 26 36 48 50 50 49 46 45 46 47 46 43 41 40 38 37 40 44 45 45 46 47 45 42 38 33 32 31 28 27 25 24 24 24 24 24 25 27 29 29 31 34 35 35 37 38 39 43 47 47 45 43 40 38 40 43 48 57 63 61
21 25 29 38 55 63 57 52 53 51 47 52 59 58 57 55 51 51 53 48 48 54 59 62 62 60 55 41 37 51 59 54 54 56 52 52 53 52 50 49 46 44 41 40 43 45 45 48 52 52 49 46 40 35 32 30 27 26 27 28 29 27 27 29 29 29 30 31 32 34 35 37 41 44 45 47 49 50 50 49 48 45 40 40 43 49 56 59
22 23 25 40 59 61 51 47 52 57 61 68 71 66 59 54 49 50 54 54 51 49 53 64 69 65 60 54 53 58 56 50 53 54 50 52 55 51 48 48 46 44 44 45 47 47 46 49 51 51 49 46 41 36 33 32 34 33 32 35 36 34 35 39 37 34 36 38 40 39 39 44 52 54 54 55 57 61 63 61 61 59 51 43 41 43 48 56
Wind_Speed
16 16 16 16 16 15 15 15 14 14 13 13 13 12 12 12 11 11 11 10 10 10 10 11 11 11 11 11 11 12 13 14 15 14 13 14 16 14 14 15 14 15 14 14 14 13 13 12 11 11 10 10 10 11 11 13 15 14 15 17 18 17 17 15 17 15 9 11 5 1 4 3 6 8 9 9 9 14 14 11 12 15 19 17 13 13 15 18
16 16 16 16 16 15 15 14 14 13 13 13 12 12 11 11 10 10 10 10 10 10 10 10 10 11 10 10 11 11 12 13 13 12 12 13 13 12 13 13 13 13 12 12 12 11 11 9 9 9 9 10 10 11 11 13 16 17 16 17 19 18 17 16 19 13 3 7 7 7 2 3 7 10 9 10 10 13 14 11 13 18 20 18 15 12 16 20
15 15 15 15 15 14 14 14 13 13 12 12 12 11 10 9 9 9 9 9 9 9 10 10 10 10 10 10 9 10 10 10 11 11 11 12 12 12 12 11 12 12 11 11 11 11 10 7 6 8 9 10 11 12 12 13 16 17 18 19 20 18 17 18 19 16 9 10 11 8 6 6 8 11 10 10 10 12 15 15 15 20 22 21 18 14 15 18
14 14 14 13 13 13 13 12 12 12 11 11 11 10 9 8 8 8 8 8 8 9 9 9 9 9 8 8 7 7 6 6 9 9 9 10 11 11 10 11 11 10 11 13 13 12 11 9 8 9 11 12 12 13 14 15 15 16 19 21 21 18 16 16 14 13 13 14 15 12 10 12 12 10 10 10 12 13 14 18 18 21 24 23 19 17 16 18
12 12 12 12 12 11 11 11 11 10 10 10 9 9 8 7 7 7 7 7 8 8 9 8 8 8 7 6 4 4 2 3 7 7 6 8 9 10 10 10 10 10 12 13 14 14 11 10 10 12 14 14 13 15 16 17 15 16 18 19 20 19 17 14 10 10 11 13 17 16 14 14 13 11 12 11 13 12 12 17 18 22 27 23 19 19 19 21
10 11 10 10 10 9 9 9 9 9 9 9 8 7 7 6 6 6 6 7 7 8 8 7 7 6 6 4 3 5 6 2 8 7 5 7 7 9 10 10 10 11 13 13 14 14 12 12 12 13 15 15 15 16 17 16 16 18 18 17 18 19 18 13 9 8 9 12 15 15 14 13 12 13 13 12 11 11 16 18 14 22 29 23 19 20 20 21
8 8 8 8 8 8 7 8 8 8 8 8 7 7 6 6 5 5 5 6 6 7 7 6 6 5 4 3 5 8 8 6 9 6 6 5 6 8 10 10 11 13 13 14 15 11 10 12 12 12 13 15 15 16 17 16 18 20 19 17 16 15 16 15 12 10 10 11 12 12 14 13 13 13 11 12 11 12 17 16 14 21 26 22 20 20 20 20
6 6 6 6 6 6 6 7 7 7 7 7 7 6 6 5 5 5 5 5 5 6 5 5 4 4 3 3 5 5 6 9 7 5 6 4 5 8 9 11 12 13 12 14 15 10 9 11 12 13 14 14 13 14 16 17 19 20 19 18 17 15 13 15 14 14 13 12 12 12 14 14 13 12 10 10 11 12 13 16 18 20 21 18 19 21 20 21
6 6 6 5 5 5 6 6 6 7 7 7 6 6 5 5 4 4 4 5 5 4 4 4 3 3 3 5 4 2 4 11 9 7 6 4 6 7 9 11 12 13 15 13 12 10 10 10 11 13 14 14 12 14 15 16 17 16 17 18 18 16 14 14 15 16 16 13 13 13 14 14 12 12 12 10 11 11 10 16 21 21 21 19 21 21 19 20
7 6 6 5 5 5 6 6 6 7 6 7 6 5 5 5 4 4 4 4 3 3 3 3 3 4 6 7 6 4 6 14 11 7 5 4 6 7 10 12 12 14 14 10 9 10 11 9 10 11 13 16 13 12 14 15 14 13 14 16 17 17 15 14 15 15 15 14 14 13 14 13 11 13 13 11 11 11 13 18 19 21 24 24 24 22 21 21
7 7 6 5 5 6 6 6 6 6 6 6 6 6 5 4 5 4 4 3 2 2 2 4 4 6 9 9 6 2 7 13 10 5 3 4 5 7 9 12 13 14 11 6 9 11 11 9 10 12 11 13 11 11 14 16 15 13 12 14 15 16 16 16 15 14 13 15 14 13 15 11 10 13 13 12 11 10 16 20 17 18 21 22 20 18 19 19
7 7 7 6 5 5 6 7 8 7 7 6 6 6 5 5 5 4 3 3 2 2 3 4 6 8 8 7 7 4 7 10 7 4 3 4 5 6 10 12 12 13 9 5 9 9 12 11 11 14 10 8 9 10 12 15 15 14 13 14 15 15 19 19 17 15 14 16 14 14 16 12 13 14 12 13 11 10 17 21 17 18 20 18 15 16 17 15
7 7 6 6 5 5 5 6 8 9 8 7 7 7 6 6 5 5 4 2 3 2 4 5 6 7 5 3 6 7 6 6 5 3 4 5 6 6 9 12 12 12 8 8 7 9 14 13 12 13 11 9 10 9 8 10 12 14 14 15 17 17 19 19 18 15 15 16 13 12 15 14 14 14 11 11 10 10 14 15 10 14 19 16 14 17 17 14
7 6 6 6 5 5 4 5 6 8 10 9 9 8 7 7 6 5 4 3 3 3 5 6 7 7 6 2 5 5 4 5 5 5 5 7 8 6 7 11 13 13 14 11 6 12 14 12 11 11 11 13 12 11 10 10 11 13 14 15 15 18 21 19 17 16 15 15 13 12 14 13 11 12 12 9 9 10 12 12 10 14 16 13 13 14 14 13
6 6 6 6 6 5 5 5 5 6 8 9 10 10 9 8 7 6 4 3 3 5 7 7 8 7 3 4 6 4 3 4 5 6 6 8 9 6 7 9 11 11 14 12 6 10 12 10 11 9 9 10 11 11 10 12 13 11 13 15 15 19 19 14 15 14 13 13 14 11 14 14 12 14 12 9 10 11 11 11 12 17 16 13 12 10 10 12
5 5 5 6 6 6 5 5 5 5 5 6 9 10 10 9 8 7 5 4 4 6 8 8 8 6 3 2 6 5 3 4 4 6 8 9 8 3 4 6 7 7 8 9 5 6 8 7 9 10 10 11 11 11 11 12 14 13 13 14 15 18 13 13 14 14 13 14 16 13 15 15 13 14 12 9 9 11 12 11 13 17 17 16 13 9 10 10
5 5 5 5 6 6 6 5 5 5 5 5 5 6 8 9 9 8 6 5 5 6 8 9 7 6 4 2 6 6 3 5 4 6 7 11 10 5 4 5 5 5 4 5 4 3 5 7 8 10 10 11 12 12 12 13 13 14 15 13 14 16 10 11 15 15 13 16 16 13 18 17 8 14 11 7 8 11 13 12 15 17 16 13 9 10 13 11
6 6 6 6 6 6 6 5 5 5 5 4 3 3 3 5 8 9 8 6 5 7 8 8 7 5 6 5 4 4 3 6 6 6 7 13 16 10 9 7 5 6 4 4 5 3 5 7 8 9 9 10 12 14 14 13 8 7 10 14 14 14 13 13 14 14 12 15 15 11 16 18 10 12 9 8 8 10 13 12 15 16 12 9 7 10 14 14
6 6 6 6 7 7 6 5 4 4 4 3 1 1 4 4 2 5 9 9 8 10 7 6 8 3 4 3 2 4 7 10 8 8 8 10 15 12 10 8 7 7 7 7 6 4 6 8 8 12 13 13 14 14 12 8 8 11 9 12 13 12 14 13 8 9 10 13 16 13 15 18 14 12 11 12 10 10 12 12 13 13 11 8 7 9 12 12
6 6 6 6 6 7 7 6 4 3 2 1 1 4 6 8 5 7 9 11 11 13 8 4 8 3 3 0 6 10 11 11 9 9 9 9 10 10 11 10 9 10 10 11 8 5 8 10 12 13 11 9 9 9 9 8 6 9 12 9 11 11 12 12 7 9 10 10 13 14 17 18 17 15 13 12 11 11 14 12 13 14 12 10 9 10 13 13
7 7 6 6 6 6 6 6 5 3 1 1 3 5 6 10 4 5 9 8 11 15 11 3 7 7 4 5 8 10 9 8 8 9 10 9 8 9 11 10 10 12 11 11 9 7 9 12 13 13 11 10 9 9 12 12 10 10 12 9 7 10 11 10 7 10 11 9 9 11 16 17 16 18 16 13 11 12 14 14 12 14 15 14 13 14 15 13
8 7 6 6 5 5 5 5 5 3 2 2 3 5 3 8 8 9 11 8 9 16 14 8 11 14 12 10 8 9 8 8 8 10 11 11 9 10 10 9 10 13 11 9 9 9 11 13 13 11 10 9 9 10 12 14 14 12 10 10 9 10 9 7 7 7 8 7 8 10 13 15 15 18 16 13 14 13 14 17 16 15 16 16 14 16 17 14
7 6 6 6 5 6 5 4 4 2 1 1 2 3 2 6 8 8 11 10 8 12 16 16 16 15 15 14 12 11 12 12 10 12 13 12 11 12 11 10 11 12 13 13 12 12 13 11 10 12 13 10 8 9 9 10 13 12 11 12 12 11 10 8 8 8 5 3 7 10 13 15 13 16 17 16 17 17 16 18 18 16 17 17 14 15 17 16
7 6 6 6 6 6 5 5 4 2 1 1 3 5 4 5 6 8 9 10 9 11 15 18 17 16 17 15 13 13 14 14 12 14 16 12 11 13 13 13 13 12 14 13 12 15 15 11 9 13 17 14 9 8 8 9 11 13 14 15 16 13 11 10 6 8 9 7 9 13 16 17 14 13 17 18 17 18 17 16 16 16 15 16 15 14 15 17
7 7 6 6 6 6 6 5 4 3 2 2 3 4 4 5 7 8 7 7 9 10 13 16 16 16 16 14 12 11 12 14 12 14 20 15 11 15 13 12 14 13 13 13 14 16 15 12 9 7 10 10 8 8 9 10 11 13 15 16 18 17 14 11 4 4 6 10 12 13 12 14 15 14 16 18 17 17 17 15 15 15 14 14 15 16 14 16
8 7 7 7 7 7 7 5 5 4 3 6 5 4 5 6 6 7 6 6 9 10 13 15 16 15 17 16 13 10 11 14 11 14 21 16 12 16 12 10 13 13 12 12 13 16 12 9 7 6 8 9 10 12 11 11 13 14 13 12 14 17 16 14 10 7 8 10 9 11 11 11 13 15 16 18 19 19 18 17 16 16 16 15 15 15 14 13
9 8 7 7 7 7 7 5 6 3 4 5 7 7 7 5 5 5 4 6 8 10 14 14 15 14 16 16 13 12 10 10 11 13 15 12 12 15 14 13 12 12 13 9 7 12 12 10 8 7 8 10 12 14 13 13 14 14 12 10 11 14 15 15 14 13 14 13 9 10 13 13 14 16 15 15 16 18 17 17 16 15 16 16 14 15 15 15
11 9 8 8 7 7 7 6 7 6 3 6 10 8 6 4 4 4 2 4 4 11 13 15 15 12 13 14 14 17 10 6 13 16 13 10 12 14 14 17 14 11 12 13 10 9 10 12 11 9 11 13 14 14 13 14 16 13 10 10 11 13 14 15 16 16 15 14 13 13 13 13 14 16 15 14 14 15 15 16 15 13 13 14 14 13 13 14
13 11 10 9 8 8 8 7 7 9 9 8 8 7 6 5 4 4 4 4 5 10 12 15 16 11 12 13 15 19 13 8 12 13 12 12 13 15 14 15 13 12 10 14 15 10 9 12 11 10 12 14 14 14 12 14 16 13 9 10 12 12 13 14 14 16 14 11 14 15 13 11 11 13 15 15 16 16 15 15 15 14 12 10 12 13 12 11
14 13 12 10 9 8 8 8 8 9 10 9 7 7 6 5 5 5 5 4 6 10 11 13 15 13 15 14 15 19 17 12 10 9 12 13 13 16 16 15 14 12 9 11 14 14 11 11 11 11 12 12 13 13 11 11 12 12 10 11 12 14 15 13 12 14 11 9 13 17 17 14 9 11 14 12 14 17 15 16 16 16 14 10 10 12 10 9
15 14 13 11 10 8 8 9 8 8 10 9 8 7 6 6 6 5 5 5 7 10 11 11 13 15 17 17 16 18 18 16 12 10 12 12 13 15 14 15 14 11 10 12 13 15 13 11 13 13 12 12 13 13 11 10 10 10 10 10 11 12 12 11 11 12 9 8 12 16 18 17 12 10 10 5 4 13 13 13 14 15 14 12 11 10 8 12
16 16 15 13 11 9 9 10 8 8 8 8 7 7 5 6 9 11 10 6 4 8 12 11 12 15 17 18 17 17 17 17 16 14 13 13 14 15 13 14 13 10 12 13 12 13 14 15 14 11 11 12 12 13 12 11 13 12 12 12 11 8 7 7 7 8 8 8 11 11 10 13 13 12 12 7 4 11 10 8 13 14 13 12 11 11 11 13
17 17 16 15 13 11 10 10 9 8 7 7 8 8 6 7 10 14 15 10 4 5 9 11 12 14 15 18 18 16 15 16 17 16 15 14 13 13 13 14 14 12 10 9 9 10 11 14 14 12 13 12 10 12 13 11 12 12 12 12 10 6 5 6 6 6 8 9 11 11 7 8 10 10 12 11 8 12 11 9 12 14 14 13 10 8 9 10
17 17 18 17 15 12 11 10 10 9 8 8 8 8 10 12 13 14 14 13 10 8 8 11 13 14 16 19 18 16 16 14 15 16 15 16 16 14 14 14 14 13 9 8 9 10 10 11 12 13 12 10 9 12 13 12 11 12 13 12 10 9 7 6 5 5 6 7 9 9 6 6 7 5 5 7 10 12 12 11 13 15 17 15 10 7 7 10
16 17 18 18 16 14 12 11 11 10 10 9 9 11 14 15 14 15 14 13 13 12 10 11 12 13 16 18 16 16 18 14 14 16 16 16 18 16 15 15 15 13 11 11 9 9 11 11 10 12 9 6 7 9 11 13 13 10 10 12 11 11 11 10 9 11 10 8 7 8 7 5 5 3 4 9 11 11 11 12 13 14 14 13 12 10 9 12
17 16 17 17 17 15 13 12 11 11 12 11 11 14 18 16 14 14 14 12 11 11 12 13 13 15 15 16 15 15 17 15 12 14 16 16 17 17 15 14 13 13 12 11 8 6 9 9 7 11 11 10 10 9 8 9 9 6 7 10 10 9 12 12 10 12 12 8 7 10 11 10 10 7 6 10 10 10 11 12 12 12 12 12 12 11 12 14
18 17 16 15 15 14 14 13 11 12 13 13 14 17 18 17 16 16 14 12 9 8 11 13 13 15 15 14 15 14 14 14 13 14 15 15 16 15 14 12 11 11 8 8 8 5 7 10 7 7 10 11 10 9 10 9 9 10 9 7 6 8 12 12 8 7 8 6 6 10 12 13 12 8 9 13 13 13 14 12 11 13 13 11 11 12 12 13
18 17 16 12 9 12 14 12 11 13 13 14 17 19 18 18 17 16 14 11 10 9 11 14 12 12 13 13 15 15 14 15 16 16 16 15 13 11 11 11 11 11 8 7 7 5 6 11 11 9 11 11 9 10 12 12 13 14 13 9 7 8 9 10 8 5 6 5 5 9 13 13 13 10 11 16 16 15 16 14 14 15 13 11 11 12 12 11
17 17 16 9 9 14 14 11 11 13 15 17 19 19 19 18 17 16 15 12 12 13 13 14 13 12 12 13 14 15 16 17 17 17 17 15 11 9 10 9 8 9 9 8 8 8 7 9 10 10 12 12 11 11 10 11 12 14 15 13 12 11 10 11 10 6 6 6 5 8 10 9 8 8 8 14 16 16 17 16 15 15 13 11 11 12 12 11
16 15 12 6 11 15 12 11 13 15 17 19 20 18 17 17 16 15 15 12 12 14 14 13 14 14 15 15 15 14 16 16 16 17 16 14 10 9 11 11 9 8 6 7 9 8 8 9 10 10 11 12 11 11 10 10 10 11 13 12 12 13 13 13 12 11 10 8 4 5 7 4 1 2 3 7 11 16 17 16 15 15 14 13 12 12 11 10
14 13 9 10 15 15 11 11 15 17 19 20 20 19 18 18 17 13 12 12 13 14 14 13 13 12 12 14 15 15 16 16 16 16 15 14 12 12 12 12 12 9 5 4 6 8 8 9 11 12 12 13 13 12 11 11 11 11 11 11 12 13 10 5 7 12 13 10 7 7 6 3 0 2 4 3 5 11 14 14 14 14 14 16 14 12 10 10
11 9 9 13 15 14 12 14 15 16 19 20 19 19 18 19 17 14 12 12 12 13 14 14 13 12 10 10 12 15 16 16 16 16 16 14 11 11 12 13 12 11 9 5 4 7 9 9 11 13 13 14 15 14 15 14 12 13 14 14 14 15 13 7 6 10 12 12 13 11 6 1 3 1 4 4 5 7 10 12 14 14 15 18 18 15 10 8
7 5 10 15 15 13 14 15 16 18 19 20 19 18 19 18 17 15 16 14 12 11 11 12 12 11 11 10 10 12 13 15 16 16 16 12 6 5 8 10 10 9 9 8 6 9 11 10 12 14 15 16 17 18 20 17 14 15 16 15 15 17 17 16 15 14 13 14 14 11 6 2 1 1 2 4 7 7 10 13 13 14 16 17 17 17 13 11
9 9 10 14 14 14 16 16 16 17 18 18 18 19 19 18 16 15 15 15 13 12 12 11 10 10 11 10 11 11 11 12 14 15 16 12 7 5 5 6 8 5 5 8 10 10 8 6 9 12 12 13 12 13 14 13 13 14 13 12 12 14 15 17 18 16 15 15 14 12 8 3 3 5 3 3 4 6 9 13 14 15 16 13 13 17 18 16
7 9 9 11 15 14 14 17 16 15 17 17 18 19 19 18 16 15 14 13 12 12 11 10 9 9 9 9 10 10 10 11 12 13 14 13 10 9 7 6 7 6 9 13 13 12 8 4 8 10 7 7 8 6 5 6 8 10 10 10 10 11 12 14 15 14 13 13 13 14 12 7 5 6 5 4 6 7 8 11 13 14 14 13 12 15 19 18
4 4 5 10 14 14 12 14 16 16 17 17 15 14 16 17 16 14 14 14 12 11 11 10 9 8 9 9 9 9 10 12 12 11 13 13 11 9 8 7 7 9 15 17 16 14 10 9 12 13 13 14 14 14 13 13 14 13 13 13 13 12 13 14 15 13 12 12 14 14 13 13 11 9 8 7 4 7 9 10 12 12 14 16 16 16 16 18
2 2 6 9 12 10 11 11 14 16 16 16 16 13 13 15 15 14 13 12 11 12 12 12 12 10 10 10 10 10 11 11 12 13 14 14 11 9 8 5 6 12 15 14 16 15 12 12 14 15 18 20 20 22 21 20 20 19 17 18 18 18 17 16 16 16 14 14 16 15 13 15 15 13 13 11 7 6 9 10 11 11 12 14 17 17 13 12
3 3 5 10 11 6 7 9 11 11 11 12 14 14 13 13 14 14 12 9 8 10 10 11 11 12 11 11 10 11 11 12 14 14 13 13 12 11 9 5 6 11 10 7 11 12 11 14 15 15 19 20 20 22 21 20 21 21 21 23 23 23 22 20 20 21 20 19 20 20 18 20 22 19 18 16 14 12 11 11 13 13 13 13 15 15 13 10
8 7 5 11 13 6 8 10 9 6 7 8 9 10 10 11 12 13 12 10 7 7 8 10 10 10 12 12 12 12 12 11 12 11 11 12 12 11 10 8 7 8 7 3 6 10 11 12 11 13 17 19 19 19 19 19 20 21 23 24 22 23 25 24 23 24 25 25 27 27 25 25 26 22 21 20 19 17 16 15 15 15 15 15 14 14 15 14
6 8 7 9 12 6 8 10 8 6 8 9 9 8 8 9 9 10 10 10 8 7 7 9 10 10 11 12 12 12 12 13 12 11 12 13 12 10 9 8 8 9 9 7 7 10 13 11 8 10 16 17 17 17 17 18 20 22 25 24 22 24 26 26 25 25 25 26 26 26 27 28 24 20 20 20 18 17 18 17 17 18 19 19 19 19 18 17
2 3 3 5 6 2 6 6 6 7 8 6 4 4 5 6 6 7 7 8 6 5 6 7 9 10 8 7 9 10 11 14 14 14 13 11 10 9 8 8 8 9 10 10 9 11 12 10 8 10 15 16 15 15 16 18 21 24 26 24 24 25 25 24 24 23 25 25 24 24 26 26 22 17 16 15 14 16 17 16 16 18 20 22 23 24 23 23
4 2 2 4 4 3 4 6 5 6 5 2 2 3 4 4 4 6 6 6 4 5 7 7 7 8 7 7 11 13 14 16 16 16 16 14 11 10 9 10 9 9 10 9 10 11 11 11 11 11 15 17 15 14 17 18 17 19 19 18 20 20 20 20 21 21 19 18 18 20 21 20 18 17 15 14 14 15 15 16 17 17 18 21 22 20 21 25
Wind_Direction
282 280 278 277 275 275 275 276 276 276 277 276 278 281 284 288 291 296 297 296 295 293 291 286 282 278 272 268 265 261 260 259 257 257 255 252 251 252 248 245 242 238 235 229 227 225 222 221 218 216 213 214 224 211 204 223 225 228 238 241 245 247 250 250 250 259 255 234 252 38 186 210 272 281 271 262 257 239 230 224 218 223 235 236 230 221 206 209
281 278 277 275 274 274 274 274 273 274 273 272 274 275 281 287 292 296 296 297 295 294 290 284 280 274 271 269 265 264 263 261 260 258 253 252 252 248 244 242 239 236 231 225 221 216 212 213 216 212 210 215 231 232 221 226 224 224 232 238 243 247 249 251 251 259 260 246 296 4 331 259 266 273 273 268 264 246 235 225 224 227 228 228 227 216 201 205
281 278 276 275 274 273 272 271 270 269 269 268 268 272 279 285 292 295 295 297 295 294 289 283 278 272 271 267 267 269 266 267 264 257 251 249 247 243 243 240 235 231 221 210 203 200 192 188 225 222 215 224 228 233 231 227 226 226 232 239 242 243 251 260 260 265 279 281 292 311 295 268 266 275 270 263 262 249 240 229 221 228 230 226 228 226 215 212
280 278 276 275 273 271 270 268 266 264 263 263 265 270 277 283 290 292 293 295 292 292 287 282 278 273 273 271 274 271 273 287 269 257 251 246 245 242 238 235 230 223 212 204 195 183 173 178 220 233 224 229 230 230 228 224 226 229 233 239 242 247 262 272 270 267 269 270 270 275 278 273 274 270 258 261 260 248 239 233 222 230 237 230 229 231 231 227
280 277 275 272 270 269 266 263 261 259 257 257 262 268 273 281 284 287 292 292 290 289 285 282 277 274 274 272 264 241 90 24 266 257 261 249 243 239 233 229 221 212 203 204 197 176 177 195 211 228 227 227 231 230 226 225 229 234 237 242 249 257 270 279 277 268 256 248 253 260 266 273 273 261 260 262 256 247 243 242 224 225 238 236 237 237 233 232
280 276 272 270 267 264 260 256 254 251 251 253 259 265 270 275 277 284 288 289 292 289 287 283 276 274 269 259 222 193 139 142 262 266 278 259 242 237 229 219 210 206 196 198 194 176 188 206 205 217 224 226 231 231 230 229 231 238 243 246 254 262 265 265 269 263 241 237 248 256 258 265 266 261 260 251 245 243 245 248 224 219 232 235 239 238 231 232
285 278 272 270 264 259 254 250 248 246 247 248 254 261 265 269 273 279 285 291 293 294 294 285 275 267 257 231 199 196 185 230 266 273 281 273 247 235 221 209 203 200 193 191 181 172 196 200 202 214 221 229 233 235 235 234 236 238 243 246 253 263 258 250 255 260 253 251 252 251 250 253 260 263 254 241 239 236 239 240 226 226 232 232 230 231 234 237
305 290 277 269 261 256 249 245 243 243 245 248 253 257 262 265 267 275 283 290 293 300 300 284 272 251 238 197 192 206 230 251 269 276 280 281 248 227 208 201 199 189 185 189 169 164 206 200 209 216 219 230 235 241 238 239 240 235 240 248 254 260 253 247 251 253 256 259 252 245 249 252 256 259 248 238 232 225 232 231 225 227 228 227 227 230 239 239
332 317 297 275 259 251 245 244 243 245 249 249 255 257 260 261 263 273 280 288 292 299 298 277 256 224 189 156 146 85 266 265 285 292 285 274 240 214 199 190 192 185 176 178 156 166 210 207 217 219 224 237 243 251 242 237 237 232 243 251 252 254 251 252 252 253 253 249 247 243 249 251 245 248 244 235 219 203 215 225 225 229 223 220 228 236 239 235
345 339 323 293 267 251 244 245 245 249 251 252 256 256 257 257 258 265 273 284 287 290 288 254 224 186 158 142 114 68 277 278 295 295 286 268 229 201 195 179 180 182 165 160 161 189 212 210 226 232 243 247 251 259 240 230 234 238 254 252 248 250 250 252 252 251 245 238 239 239 245 244 233 241 238 220 203 201 220 220 220 232 234 231 232 236 237 231
341 342 339 323 289 260 246 244 247 251 252 255 254 251 252 249 252 258 265 277 279 281 259 227 200 174 165 156 141 99 284 282 290 293 278 244 202 183 186 174 171 164 144 165 196 197 206 222 241 233 238 241 244 260 243 234 239 247 258 253 248 250 249 250 248 242 236 238 234 231 243 234 225 242 232 211 198 209 230 226 220 226 233 240 234 227 230 226
329 334 339 334 316 284 256 245 246 250 251 253 250 249 248 243 247 249 257 270 260 248 229 214 192 183 181 183 204 250 284 273 276 288 243 198 167 174 179 170 155 134 123 205 218 208 211 224 231 218 227 242 243 262 248 233 237 247 253 251 253 253 249 245 241 235 235 237 224 229 245 228 228 243 219 207 204 201 224 232 229 221 228 243 236 224 225 222
320 324 330 330 326 310 280 256 248 247 248 247 245 244 242 240 244 247 251 257 245 221 210 205 190 188 176 186 253 267 273 259 257 248 209 159 133 159 167 164 153 142 167 219 239 235 221 223 219 217 240 245 240 262 248 223 234 246 246 250 256 254 247 238 229 227 233 234 213 221 241 226 227 229 197 191 196 197 221 230 211 208 231 245 233 222 216 214
314 315 320 323 325 318 308 280 256 249 246 242 241 241 239 239 238 244 246 245 242 205 202 199 181 182 172 195 285 275 262 253 228 211 192 147 128 130 140 158 162 166 184 190 221 233 220 222 220 221 236 228 240 267 254 231 240 247 242 245 249 253 249 227 213 216 225 223 193 202 239 237 219 198 186 189 194 204 221 229 204 198 221 233 224 212 203 207
315 316 317 320 323 322 316 295 273 257 249 243 239 237 235 236 237 244 241 236 229 197 201 195 182 184 185 283 290 283 256 231 204 188 167 133 118 124 133 146 153 160 178 175 192 232 219 212 211 218 234 233 251 265 250 234 234 236 238 237 232 251 250 201 185 202 212 202 181 207 246 246 229 199 189 197 207 216 221 228 213 195 200 218 224 209 205 210
328 326 325 322 320 319 313 301 288 275 265 252 243 240 236 234 234 239 236 229 224 205 199 192 187 175 117 292 265 267 242 201 195 173 151 110 99 128 136 124 139 149 176 185 187 222 214 202 211 226 238 244 244 242 244 237 228 224 235 240 231 244 236 170 178 201 209 203 190 211 237 243 234 197 181 187 208 221 219 223 219 211 222 246 248 218 221 227
354 348 347 338 327 319 309 304 297 290 289 277 265 256 244 237 233 235 237 230 220 208 196 190 189 189 189 240 246 261 237 193 198 171 147 118 125 228 239 146 162 172 174 198 202 203 201 209 226 231 230 233 233 236 243 237 226 218 222 238 240 242 223 179 189 194 209 221 206 208 230 242 207 164 174 195 214 226 220 225 234 237 242 252 246 213 222 234
356 355 359 356 349 335 316 309 303 300 303 300 303 291 275 260 241 234 233 231 214 193 190 194 185 201 257 275 243 253 212 190 194 180 161 137 150 209 228 176 183 203 200 225 236 235 215 220 233 238 230 225 229 229 233 239 262 270 233 227 236 244 232 212 198 189 202 222 223 221 230 237 196 171 215 223 222 235 223 225 241 253 251 239 252 240 232 230
339 344 350 355 358 356 346 331 311 308 310 306 307 75 44 14 310 266 242 230 213 177 161 226 207 160 330 317 172 202 200 201 198 182 183 163 162 185 198 188 202 215 221 229 232 236 224 225 231 235 231 225 227 228 236 266 325 332 292 234 234 249 235 229 214 186 189 206 221 227 228 233 217 207 225 220 229 237 226 225 231 252 264 255 270 252 236 241
325 327 334 343 351 358 1 356 348 338 316 279 153 119 53 14 9 337 272 232 214 182 147 250 226 147 16 87 161 181 198 211 204 182 192 195 176 177 193 203 215 222 228 225 224 225 225 237 239 234 235 228 223 233 258 283 299 315 310 264 236 242 231 234 228 187 191 212 221 225 230 232 228 227 225 222 232 230 231 237 227 236 248 247 248 231 232 248
313 314 323 329 336 346 355 2 9 9 31 119 151 135 41 353 317 297 281 239 218 204 177 182 217 215 226 187 182 198 209 217 205 191 200 204 183 185 204 207 209 219 227 225 223 224 229 246 245 236 244 242 232 243 257 266 272 296 313 305 260 246 235 231 211 179 185 215 234 238 241 238 230 232 235 232 230 226 236 243 235 233 233 236 242 245 246 235
307 306 310 314 323 329 336 354 9 24 53 114 166 158 30 323 246 242 270 249 226 223 216 211 219 230 224 198 204 213 209 215 212 201 205 209 201 200 208 210 215 219 223 221 224 238 237 241 245 237 237 235 232 246 254 261 270 281 290 289 281 266 244 199 161 163 169 197 238 243 247 248 234 230 238 238 232 234 241 240 240 241 237 236 239 249 251 231
309 307 303 304 308 309 317 333 344 17 28 169 210 240 293 279 247 254 264 243 226 230 231 227 222 226 221 213 222 216 206 214 216 203 206 214 207 203 207 215 225 228 227 218 218 239 238 237 248 235 229 239 254 263 270 270 268 270 266 264 265 258 245 221 199 218 221 205 239 249 267 275 257 237 238 242 236 236 241 239 241 244 241 239 233 239 248 242
311 307 302 298 292 297 302 303 310 332 321 256 262 279 287 281 279 289 269 239 232 230 227 226 222 222 218 217 230 228 213 214 216 206 211 220 205 203 215 223 235 244 238 224 221 241 251 257 255 230 230 247 272 275 269 266 260 254 250 252 257 252 253 256 216 207 236 249 251 262 278 277 262 242 237 241 237 229 236 240 240 240 238 237 227 225 245 256
307 305 301 294 286 288 285 288 298 285 286 285 264 262 283 292 295 299 272 240 248 234 217 217 218 220 214 208 221 222 212 222 230 214 217 231 212 203 217 228 237 243 237 236 234 239 252 254 242 231 238 247 260 261 249 248 254 253 246 245 253 260 268 270 230 175 240 254 249 250 263 259 244 234 231 238 235 223 228 234 234 235 233 234 226 219 237 258
302 299 298 294 288 285 280 289 283 265 355 349 302 262 276 286 293 289 255 252 265 227 203 209 212 211 202 202 207 201 214 232 233 216 222 237 219 211 227 230 234 241 240 254 245 231 246 258 242 247 257 250 248 252 248 242 250 258 255 247 250 259 266 265 258 252 250 253 242 224 237 258 248 239 241 244 233 218 221 228 232 237 232 230 229 221 223 241
298 296 296 292 290 289 281 284 273 253 41 339 272 255 267 270 281 280 254 275 264 209 197 203 211 214 204 205 204 193 218 223 196 204 220 225 208 213 234 226 226 241 239 257 254 228 243 251 238 244 254 254 249 249 247 239 242 254 262 262 255 254 256 256 256 252 248 257 254 220 232 260 260 253 261 259 229 207 212 224 228 233 229 222 224 225 223 233
296 292 292 287 286 288 278 274 266 244 222 237 240 248 257 258 269 258 252 291 222 183 194 198 205 217 205 207 205 198 211 188 182 203 214 218 208 208 231 228 231 256 239 235 246 240 236 231 235 253 253 251 249 246 243 234 234 245 264 268 257 255 255 252 251 248 249 260 259 237 233 251 258 252 257 256 227 205 216 225 220 220 220 217 219 224 224 229
294 291 291 285 280 283 276 272 259 250 254 246 241 250 246 255 264 240 252 275 196 187 202 204 206 204 189 196 204 207 217 206 205 219 213 220 215 203 222 229 237 275 255 225 239 249 238 233 243 257 249 248 247 240 239 240 238 244 262 269 262 261 258 253 253 254 254 260 261 254 246 247 257 254 248 246 231 216 220 220 210 209 211 210 213 213 217 218
291 290 290 285 278 278 274 270 256 250 262 258 247 250 244 249 250 242 248 242 223 213 206 214 218 202 191 199 205 211 219 215 212 212 200 214 221 209 216 219 228 265 258 226 242 248 241 237 241 252 248 245 248 244 244 248 242 242 253 262 261 256 253 253 258 262 262 254 252 254 250 248 258 260 255 253 231 213 214 218 212 207 206 208 209 207 217 224
287 287 289 287 279 275 269 268 257 247 254 250 245 245 240 246 242 238 233 234 255 225 196 214 219 200 201 208 207 206 214 218 208 197 202 215 220 215 218 223 229 254 249 237 245 244 245 237 230 246 251 244 253 257 254 246 235 240 252 261 263 253 249 256 253 251 255 250 250 254 251 248 251 252 255 286 207 193 205 221 208 192 192 201 201 190 197 211
281 281 283 284 279 270 262 264 261 252 250 243 240 233 230 250 240 234 237 248 273 210 197 215 211 198 204 211 211 205 210 222 214 206 217 216 208 208 218 224 221 233 242 240 239 237 249 251 239 241 242 237 249 254 250 244 238 245 252 253 261 256 245 254 249 242 247 253 258 266 267 253 244 241 247 268 224 193 196 200 186 175 178 184 182 186 202 211
277 276 277 278 279 272 259 259 259 253 246 237 231 219 223 248 240 237 245 246 238 206 217 229 214 205 208 211 215 211 214 226 219 214 219 216 211 209 220 226 216 222 243 251 251 243 247 257 255 246 230 220 233 245 242 234 227 235 244 240 242 248 244 246 248 247 251 258 257 257 277 273 252 246 248 247 216 190 185 176 174 178 185 181 175 195 215 215
277 274 272 270 273 271 260 254 251 246 242 232 223 216 225 242 246 251 256 250 245 248 252 242 223 215 216 218 217 212 217 224 217 218 218 216 221 216 216 226 221 224 240 245 248 246 244 252 247 232 217 203 223 245 248 253 248 235 240 245 237 237 246 250 255 268 274 280 271 248 243 267 256 243 227 201 174 171 178 177 174 184 195 194 188 190 196 212
280 275 271 268 268 268 263 255 244 239 238 225 216 223 230 239 248 252 254 253 249 247 251 246 230 224 223 224 224 217 220 221 210 218 222 219 225 226 221 225 226 227 236 238 236 234 244 255 235 218 213 207 232 249 252 268 273 244 231 247 241 231 240 251 267 285 293 299 286 249 231 250 256 240 188 174 170 175 183 184 185 193 201 198 193 187 193 227
281 276 273 269 265 264 261 253 240 234 230 215 219 234 236 238 247 250 257 271 262 245 247 244 232 235 235 227 230 226 219 220 217 225 232 226 226 230 223 220 221 220 228 247 258 245 250 259 222 205 222 233 242 253 247 251 270 267 241 249 254 246 244 252 265 270 270 273 266 247 243 252 254 245 209 189 189 197 190 186 191 190 186 182 182 187 208 238
281 278 274 271 268 266 258 244 233 230 223 215 230 241 241 244 251 256 267 281 275 250 250 247 235 237 238 227 232 230 213 215 223 230 236 231 228 228 219 209 206 208 225 262 270 260 262 272 257 218 228 234 235 251 255 247 258 269 263 254 258 252 246 250 260 258 250 254 257 249 246 250 251 242 213 205 209 210 196 192 194 183 178 179 183 198 225 250
281 278 274 273 261 257 254 239 228 229 223 227 241 245 247 252 253 258 268 270 263 258 256 253 245 241 241 234 231 229 221 223 227 231 234 230 226 222 212 205 205 214 238 263 260 257 260 272 275 259 251 249 234 237 253 256 254 254 260 268 266 261 257 250 250 259 260 257 259 259 259 255 257 257 223 207 208 208 200 201 195 181 181 183 188 214 241 255
277 276 281 278 229 235 247 238 228 227 226 234 243 246 251 254 250 256 266 264 258 261 261 255 249 244 244 243 237 230 231 235 232 232 233 227 222 218 214 215 215 226 239 241 251 266 265 269 272 259 262 266 245 233 250 263 260 248 246 255 261 261 262 257 252 251 258 266 270 271 273 265 268 280 239 210 210 208 203 206 200 189 194 192 196 228 248 250
267 270 284 258 221 239 252 237 225 222 227 235 240 244 251 256 257 259 259 256 253 257 262 261 256 252 245 241 241 236 235 239 236 237 240 233 231 239 234 229 223 222 230 233 246 263 262 264 269 264 272 273 250 238 252 270 278 263 246 246 255 256 256 258 258 253 255 265 271 271 279 279 310 331 230 215 220 213 208 212 208 201 202 196 201 228 242 245
259 260 261 229 233 253 257 234 225 223 231 238 241 246 250 255 262 263 254 253 257 255 257 261 263 269 261 245 241 239 237 239 237 241 247 241 238 243 232 220 218 218 223 235 248 258 252 253 266 267 265 263 252 247 255 266 274 276 267 263 268 273 274 264 263 273 277 280 288 292 289 286 25 199 211 223 221 209 212 216 208 200 195 191 201 224 237 244
253 254 252 239 245 256 249 238 233 229 234 239 241 244 248 253 257 256 252 258 266 260 254 257 259 267 269 252 245 244 240 240 240 241 247 246 242 236 212 196 202 212 224 240 268 274 259 249 263 268 263 262 263 260 264 271 270 267 271 273 274 279 281 272 266 282 288 288 292 297 297 351 67 135 206 230 228 209 213 215 205 195 191 195 210 224 233 248
217 227 256 252 251 250 243 239 237 235 238 242 246 246 248 254 257 254 253 256 264 260 250 251 252 255 258 252 251 249 241 243 244 242 247 248 234 217 196 185 195 210 235 249 264 276 266 253 258 268 273 275 273 265 263 266 262 256 261 266 270 273 274 273 272 276 280 280 281 283 277 243 225 243 223 248 253 233 217 213 203 197 198 204 217 228 238 260
211 214 240 257 260 249 235 234 238 240 242 245 249 247 248 252 252 252 253 251 253 254 251 252 254 257 256 251 252 251 244 247 246 243 248 245 220 201 182 190 211 226 253 239 229 245 256 250 253 263 276 279 272 261 255 255 257 260 262 264 273 279 277 276 275 274 275 273 271 276 277 262 263 272 265 255 257 234 212 205 199 200 208 210 219 237 249 262
225 209 215 248 269 267 243 233 238 247 250 251 251 250 251 251 245 245 253 254 251 250 250 250 253 261 259 252 253 251 247 252 251 247 245 239 237 238 232 242 248 244 246 237 228 235 242 246 255 260 271 272 269 273 292 316 306 294 286 277 279 290 295 295 287 272 268 271 272 272 273 283 308 295 279 261 243 236 225 213 209 215 227 223 216 231 243 249
203 208 231 240 252 267 260 240 239 249 257 261 261 255 249 247 244 245 252 256 252 250 253 250 251 262 258 252 258 256 251 254 253 251 243 239 253 254 232 237 253 247 247 242 234 236 242 251 256 258 263 267 274 286 302 316 308 293 286 280 274 275 285 296 291 274 273 285 280 270 277 294 300 293 301 313 274 243 241 232 225 227 233 227 216 219 234 244
175 252 276 240 219 240 261 247 241 250 257 259 258 257 252 248 246 245 248 252 250 248 253 253 252 256 253 252 260 260 257 258 253 249 246 244 249 244 222 216 245 257 258 247 237 239 244 250 252 254 260 264 272 280 287 294 290 282 281 280 278 277 278 278 276 274 282 289 281 275 288 300 298 299 310 323 326 286 263 251 243 232 229 235 231 227 234 246
198 183 268 245 214 222 272 250 230 243 260 259 254 254 254 250 245 240 243 255 257 252 253 254 251 250 251 252 255 257 259 261 260 256 252 248 243 243 249 250 255 267 271 253 240 240 242 250 253 256 262 265 269 274 278 280 279 278 279 278 280 283 280 272 268 272 274 274 275 279 284 285 287 293 300 301 300 292 277 264 257 244 240 251 248 232 220 219
219 201 244 240 215 224 289 258 230 247 275 275 270 261 255 256 251 245 244 249 258 258 253 254 253 253 257 255 253 259 257 251 255 254 245 243 242 248 262 257 248 265 278 267 241 233 238 252 258 261 268 271 270 272 276 277 278 279 279 277 277 277 276 273 271 272 272 270 273 278 279 279 281 286 288 288 287 284 279 271 263 253 246 247 246 235 227 227
233 232 252 232 212 235 291 271 260 285 286 277 280 272 263 269 265 257 252 248 257 274 265 264 267 264 266 261 252 257 254 242 241 240 235 237 240 251 268 262 255 264 266 262 252 239 242 253 265 274 278 277 274 274 276 277 278 278 278 278 279 278 278 277 275 275 275 272 273 276 278 280 286 288 285 284 283 281 278 270 262 259 257 253 248 241 236 237
336 256 226 197 195 252 313 302 292 289 276 271 288 285 280 284 272 268 261 237 241 284 283 284 283 270 270 268 250 247 247 241 240 239 239 243 245 251 261 260 267 276 266 255 249 245 249 260 276 283 280 278 279 279 277 279 279 276 275 279 281 281 282 279 272 270 273 275 277 279 279 283 289 286 281 285 286 278 271 265 264 263 257 254 254 250 245 242
30 29 180 171 113 47 337 321 306 281 267 274 347 341 318 299 281 286 278 243 244 283 279 288 297 282 278 267 250 249 252 251 250 247 242 240 241 250 258 256 262 272 265 254 248 246 251 261 272 279 279 279 282 283 284 289 285 274 273 280 278 276 282 283 274 272 277 284 287 284 280 283 286 284 284 286 281 276 273 268 266 264 253 244 243 246 250 248